Change the Weather History Date:

Tuesday, December 20, 2011

  Actual Average Record
Temperature  
Mean Temperature 24 °F -  
Max Temperature 33 °F 15 °F 48 °F (1956)
Min Temperature 14 °F -1 °F -36 °F (1983)
Degree Days  
Heating Degree Days 42    
Moisture  
Dew Point 14 °F    
Average Humidity 67    
Maximum Humidity 93    
Minimum Humidity 44    
Precipitation  
Precipitation 0.00 in - - ()
Sea Level Pressure  
Sea Level Pressure 29.76 in    
Wind  
Wind Speed 8 mph (SSW)    
Max Wind Speed 15 mph    
Max Gust Speed 22 mph    
Visibility 10 miles    
Events      
Averages and records for this station are not official NWS values.
T = Trace of Precipitation, MM = Missing Value Source: NWS Daily Summary

Daily Weather History Graph

Daily Weather History Graph

Search for Another Location

Airport or City:

Trip Planner

Search our weather history database for the weather conditions in past years. The results will help you decide how hot, cold, wet, or windy it might be!

Date:

Astronomy

Dec. 20, 2011 Rise Set
Actual Time 8:04 AM CST 4:30 PM CST
Civil Twilight 7:28 AM CST 5:06 PM CST
Nautical Twilight 6:48 AM CST 5:45 PM CST
Astronomical Twilight 6:11 AM CST 6:23 PM CST
Moon 3:16 AM CST (12/20) 1:15 PM CST (12/20)
Length of Visible Light 9h 38m
Length of Day
8h 26m
Waning Crescent, 21% of the Moon is Illuminated
Dec 20
Waning Crescent
Dec 24
New
Jan 1
First Quarter
Jan 9
Full
Jan 16
Last Quarter

Hourly Weather History & Observations

Time (CST) Temp. Windchill Dew Point Humidity Pressure Visibility Wind Dir Wind Speed Gust Speed Precip Events Conditions
12:15 AM 17.6 °F 10.7 °F 14.0 °F 86% 30.17 in 10.0 mi South 4.6 mph - N/A   Clear
12:35 AM 17.6 °F 9.3 °F 14.0 °F 86% 30.16 in 10.0 mi South 5.8 mph - N/A   Clear
12:55 AM 15.8 °F 8.6 °F 12.2 °F 86% 30.13 in 10.0 mi South 4.6 mph - N/A   Clear
1:15 AM 17.6 °F 9.3 °F 12.2 °F 79% 30.12 in 10.0 mi South 5.8 mph - N/A   Clear
1:35 AM 15.8 °F 7.2 °F 12.2 °F 86% 30.11 in 10.0 mi South 5.8 mph - N/A   Clear
1:55 AM 15.8 °F 7.2 °F 12.2 °F 86% 30.10 in 10.0 mi South 5.8 mph - N/A   Clear
2:15 AM 14.0 °F 5.1 °F 12.2 °F 93% 30.08 in 10.0 mi South 5.8 mph - N/A   Clear
2:35 AM 14.0 °F 5.1 °F 12.2 °F 93% 30.07 in 10.0 mi SSW 5.8 mph - N/A   Clear
2:55 AM 14.0 °F 5.1 °F 12.2 °F 93% 30.07 in 10.0 mi South 5.8 mph - N/A   Clear
3:15 AM 14.0 °F 5.1 °F 12.2 °F 93% 30.05 in 10.0 mi South 5.8 mph - N/A   Clear
3:35 AM 14.0 °F 2.9 °F 12.2 °F 93% 30.03 in 10.0 mi South 8.1 mph - N/A   Clear
4:15 AM 15.8 °F 4.2 °F 14.0 °F 93% 30.00 in 10.0 mi SSW 9.2 mph - N/A   Clear
4:35 AM 15.8 °F 6.1 °F 14.0 °F 93% 29.98 in 10.0 mi SSW 6.9 mph - N/A   Clear
4:55 AM 15.8 °F 6.1 °F 14.0 °F 93% 29.97 in 10.0 mi South 6.9 mph - N/A   Clear
5:35 AM 15.8 °F 6.1 °F 14.0 °F 93% 29.94 in 10.0 mi South 6.9 mph - N/A   Clear
5:55 AM 15.8 °F 5.1 °F 12.2 °F 86% 29.93 in 10.0 mi South 8.1 mph - N/A   Clear
6:55 AM 17.6 °F 9.3 °F 12.2 °F 79% 29.90 in 10.0 mi South 5.8 mph - N/A   Clear
7:15 AM 17.6 °F 8.2 °F 12.2 °F 79% 29.91 in 10.0 mi South 6.9 mph - N/A   Clear
7:35 AM 17.6 °F 9.3 °F 12.2 °F 79% 29.90 in 10.0 mi South 5.8 mph - N/A   Clear
7:55 AM 17.6 °F 6.4 °F 12.2 °F 79% 29.89 in 10.0 mi South 9.2 mph - N/A   Clear
8:15 AM 17.6 °F 4.3 °F 14.0 °F 86% 29.87 in 10.0 mi SSW 12.7 mph - N/A   Clear
8:35 AM 17.6 °F 5.7 °F 14.0 °F 86% 29.86 in 10.0 mi South 10.4 mph 16.1 mph N/A   Clear
9:35 AM 21.2 °F 8.3 °F 14.0 °F 74% 29.82 in 10.0 mi SSW 13.8 mph 19.6 mph N/A   Clear
9:55 AM 21.2 °F 8.3 °F 15.8 °F 80% 29.82 in 10.0 mi SSW 13.8 mph 19.6 mph N/A   Clear
10:15 AM 23.0 °F 10.6 °F 15.8 °F 74% 29.80 in 10.0 mi SSW 13.8 mph 19.6 mph N/A   Clear
1:15 PM 32.0 °F 22.1 °F 15.8 °F 51% 29.68 in 10.0 mi SSW 13.8 mph 18.4 mph N/A   Clear
1:35 PM 32.0 °F 22.5 °F 15.8 °F 51% 29.67 in 10.0 mi SSW 12.7 mph 20.7 mph N/A   Clear
1:55 PM 32.0 °F 21.6 °F 14.0 °F 48% 29.65 in 10.0 mi SSW 15.0 mph 19.6 mph N/A   Clear
2:15 PM 32.0 °F 21.6 °F 14.0 °F 48% 29.64 in 10.0 mi SSW 15.0 mph 21.9 mph N/A   Clear
2:35 PM 33.8 °F 23.9 °F 14.0 °F 44% 29.63 in 10.0 mi SSW 15.0 mph - N/A   Clear
2:55 PM 33.8 °F 25.3 °F 14.0 °F 44% 29.62 in 10.0 mi South 11.5 mph 16.1 mph N/A   Clear
3:15 PM 33.8 °F 26.4 °F 14.0 °F 44% 29.62 in 10.0 mi SSW 9.2 mph 16.1 mph N/A   Clear
3:35 PM 32.0 °F 24.2 °F 14.0 °F 48% 29.62 in 10.0 mi SSW 9.2 mph - N/A   Clear
3:55 PM 32.0 °F 22.5 °F 14.0 °F 48% 29.61 in 10.0 mi SSW 12.7 mph 20.7 mph N/A   Clear
4:35 PM 32.0 °F 23.6 °F 14.0 °F 48% 29.59 in 10.0 mi South 10.4 mph 18.4 mph N/A   Clear
4:55 PM 32.0 °F 23.0 °F 14.0 °F 48% 29.59 in 10.0 mi South 11.5 mph 17.3 mph N/A   Clear
5:15 PM 30.2 °F 24.3 °F 14.0 °F 51% 29.59 in 10.0 mi South 5.8 mph - N/A   Clear
5:35 PM 30.2 °F 21.3 °F 15.8 °F 55% 29.59 in 10.0 mi South 10.4 mph - N/A   Clear
5:55 PM 30.2 °F 23.4 °F 15.8 °F 55% 29.60 in 10.0 mi SSW 6.9 mph - N/A   Clear
6:15 PM 30.2 °F 25.4 °F 15.8 °F 55% 29.60 in 10.0 mi SSW 4.6 mph - N/A   Clear
6:35 PM 30.2 °F 23.4 °F 15.8 °F 55% 29.59 in 10.0 mi SSW 6.9 mph - N/A   Clear
6:55 PM 30.2 °F 23.4 °F 15.8 °F 55% 29.58 in 10.0 mi SSW 6.9 mph - N/A   Clear
7:15 PM 30.2 °F 21.9 °F 15.8 °F 55% 29.57 in 10.0 mi SSW 9.2 mph - N/A   Clear
7:35 PM 30.2 °F 21.3 °F 15.8 °F 55% 29.57 in 10.0 mi SSW 10.4 mph 17.3 mph N/A   Clear
7:55 PM 30.2 °F 21.9 °F 15.8 °F 55% 29.57 in 10.0 mi SSW 9.2 mph - N/A   Clear
8:15 PM 30.2 °F 21.9 °F 15.8 °F 55% 29.56 in 10.0 mi SSW 9.2 mph - N/A   Clear
8:35 PM 30.2 °F 24.3 °F 14.0 °F 51% 29.56 in 10.0 mi SSW 5.8 mph - N/A   Mostly Cloudy
8:55 PM 30.2 °F 22.6 °F 14.0 °F 51% 29.56 in 10.0 mi SSW 8.1 mph - N/A   Mostly Cloudy
9:15 PM 30.2 °F 22.6 °F 14.0 °F 51% 29.55 in 10.0 mi SSW 8.1 mph - N/A   Mostly Cloudy
9:35 PM 30.2 °F 22.6 °F 14.0 °F 51% 29.54 in 10.0 mi South 8.1 mph - N/A   Scattered Clouds
9:55 PM 28.4 °F 21.2 °F 14.0 °F 55% 29.53 in 10.0 mi South 6.9 mph - N/A   Clear
10:15 PM 28.4 °F 23.3 °F 14.0 °F 55% 29.54 in 10.0 mi SW 4.6 mph - N/A   Clear
10:35 PM 28.4 °F 21.2 °F 15.8 °F 59% 29.54 in 10.0 mi SSW 6.9 mph - N/A   Scattered Clouds
10:55 PM 28.4 °F 22.2 °F 15.8 °F 59% 29.54 in 10.0 mi SSW 5.8 mph - N/A   Scattered Clouds
11:15 PM 28.4 °F 23.3 °F 15.8 °F 59% 29.54 in 10.0 mi SSW 4.6 mph - N/A   Mostly Cloudy
11:35 PM 28.4 °F 23.3 °F 15.8 °F 59% 29.54 in 10.0 mi SSW 4.6 mph - N/A   Mostly Cloudy
11:55 PM 28.4 °F 23.3 °F 15.8 °F 59% 29.54 in 10.0 mi SSW 4.6 mph - N/A   Scattered Clouds